Main page
METAR-TAF:

METAR-TAF

Airports :

Millard Airport

Omaha, Nebraska, United States

latitude: 41-11-45N, longitude: 096-06-44W, elevation: 1050 ft

Current weather observation

The report was made 30 minutes ago, at 18:35 UTC
Wind 10 mph from the Northeast with gusts up to 24 mph, varying between North and East
Temperature 88°F
Humidity 40%
Pressure 29.86 in. Hg
Visibility: 10 miles
Overcast at a height of 4700 ft

METAR: KMLE 131835Z AUTO 05009G21KT 010V090 10SM OVC047 31/16 A2986 RMK AO2 T03050160

Time: 14:05 (19:05 UTC)


TAF: missing

Weather observations and forecasts of more than 4000 airports (METAR and TAF reports).

The available stations are represented by yellow and red dots on the map.

Hover mouse over dot to see the name of the station.

Then click to see weather observations and forecasts.

To change the map : click on the green buttons with a black cross to zoom in, on the green button with a dash to zoom out, or on the green arrows for adjacent maps.


METAR-TAF: